Aberdeen / Amory, MS

7:04 AM CDT on April 27, 2017 (GMT -0500)
Aberdeen / Amory

Weather History for KM40 - March, 2013

Change the Weather History Date:

Thursday, March 28, 2013

  Actual Average (KCBM) Record (KCBM)
Temperature  
Mean Temperature 50 °F -  
Max Temperature 69 °F 68 °F 87 °F (1997)
Min Temperature 32 °F 46 °F 32 °F (2013)
Degree Days  
Heating Degree Days 14    
Moisture  
Dew Point 37 °F    
Average Humidity 61    
Maximum Humidity 75    
Minimum Humidity 52    
Precipitation  
Precipitation 0.00 in - - ()
Sea Level Pressure  
Sea Level Pressure 30.32 in    
Wind  
Wind Speed 1 mph (West)    
Max Wind Speed 9 mph    
Max Gust Speed -    
Visibility 8 miles    
Events      
Averages and records for this station are not official NWS values.
T = Trace of Precipitation, MM = Missing Value Source: NWS Daily Summary

Daily Weather History Graph

Daily Weather History Graph

Search for Another Location

Airport or City:

Trip Planner

Search our weather history database for the weather conditions in past years. The results will help you decide how hot, cold, wet, or windy it might be!

Date:

Astronomy

Mar. 28, 2013 Rise Set
Actual Time 6:46 AM CDT 7:11 PM CDT
Civil Twilight 6:21 AM CDT 7:36 PM CDT
Nautical Twilight 5:52 AM CDT 8:06 PM CDT
Astronomical Twilight 5:22 AM CDT 8:36 PM CDT
Moon 8:56 PM CDT (3/28) 7:19 AM CDT (3/28)
Length of Visible Light 13h 15m
Length of Day
12h 25m
Full, 98% of the Moon is Illuminated
Mar 28
Full
Apr 2
Last Quarter
Apr 10
New
Apr 18
First Quarter
Apr 25
Full

Hourly Weather History & Observations

Time (CDT) Temp. Windchill Dew Point Humidity Pressure Visibility Wind Dir Wind Speed Gust Speed Precip Events Conditions
12:15 AM 35.6 °F - 26.6 °F 70% 30.32 in 10.0 mi Calm Calm - N/A   Clear
12:35 AM 35.6 °F - 26.6 °F 70% 30.33 in 10.0 mi Calm Calm - N/A   Clear
12:55 AM 35.6 °F - 26.6 °F 70% 30.33 in 8.0 mi Calm Calm - N/A   Clear
1:15 AM 35.6 °F - 26.6 °F 70% 30.33 in 8.0 mi Calm Calm - N/A   Clear
1:55 AM 33.8 °F - 26.6 °F 75% 30.33 in 7.0 mi Calm Calm - N/A   Clear
2:35 AM 35.6 °F - 26.6 °F 70% 30.34 in 9.0 mi Calm Calm - N/A   Clear
2:55 AM 33.8 °F - 24.8 °F 70% 30.34 in 7.0 mi Calm Calm - N/A   Clear
3:15 AM 33.8 °F - 24.8 °F 70% 30.34 in 5.0 mi Calm Calm - N/A   Haze
3:35 AM 33.8 °F - 23.0 °F 65% 30.34 in 6.0 mi Calm Calm - N/A   Haze
3:55 AM 32.0 °F - 23.0 °F 69% 30.34 in 4.0 mi Calm Calm - N/A   Haze
4:15 AM 32.0 °F - 23.0 °F 69% 30.34 in 0.5 mi Calm Calm - N/A   Haze
4:35 AM 32.0 °F - 23.0 °F 69% 30.34 in 4.0 mi Calm Calm - N/A   Haze
4:55 AM 32.0 °F - 23.0 °F 69% 30.34 in 4.0 mi Calm Calm - N/A   Haze
5:15 AM 32.0 °F - 23.0 °F 69% 30.34 in 4.0 mi Calm Calm - N/A   Haze
5:35 AM 32.0 °F - 21.2 °F 64% 30.34 in 2.0 mi Calm Calm - N/A   Haze
5:55 AM 32.0 °F - 23.0 °F 69% 30.34 in 2.5 mi Calm Calm - N/A   Haze
6:15 AM 32.0 °F - 21.2 °F 64% 30.35 in 4.0 mi Calm Calm - N/A   Haze
6:35 AM 32.0 °F - 21.2 °F 64% 30.35 in 3.0 mi Calm Calm - N/A   Haze
6:55 AM 32.0 °F - 19.4 °F 60% 30.36 in 3.0 mi Calm Calm - N/A   Haze
7:15 AM 32.0 °F - 21.2 °F 64% 30.36 in 5.0 mi Calm Calm - N/A   Haze
7:35 AM 32.0 °F - 23.0 °F 69% 30.36 in 4.0 mi Calm Calm - N/A   Haze
7:55 AM 35.6 °F - 26.6 °F 70% 30.37 in 6.0 mi Calm Calm - N/A   Haze
8:15 AM 39.2 °F - 30.2 °F 70% 30.37 in 8.0 mi Calm Calm - N/A   Clear
8:35 AM 42.8 °F - 32.0 °F 66% 30.38 in 10.0 mi Calm Calm - N/A   Clear
8:55 AM 46.4 °F - 32.0 °F 57% 30.38 in 9.0 mi Calm Calm - N/A   Clear
9:15 AM 51.8 °F - 35.6 °F 54% 30.38 in 9.0 mi Calm Calm - N/A   Clear
9:55 AM 57.2 °F - 41.0 °F 55% 30.38 in 9.0 mi Calm Calm - N/A   Clear
10:15 AM 59.0 °F - 42.8 °F 55% 30.39 in 10.0 mi South 3.5 mph - N/A   Clear
10:35 AM 60.8 °F - 44.6 °F 55% 30.39 in 10.0 mi Calm Calm - N/A   Clear
10:55 AM 62.6 °F - 46.4 °F 55% 30.39 in 10.0 mi Calm Calm - N/A   Clear
11:15 AM 62.6 °F - 46.4 °F 55% 30.39 in 10.0 mi Calm Calm - N/A   Clear
11:35 AM 64.4 °F - 48.2 °F 56% 30.39 in 10.0 mi SW 3.5 mph - N/A   Clear
11:55 AM 64.4 °F - 48.2 °F 56% 30.38 in 10.0 mi Calm Calm - N/A   Clear
12:15 PM 66.2 °F - 48.2 °F 52% 30.37 in 10.0 mi West 5.8 mph - N/A   Clear
12:35 PM 66.2 °F - 50.0 °F 56% 30.37 in 10.0 mi WNW 3.5 mph - N/A   Clear
12:55 PM 66.2 °F - 50.0 °F 56% 30.36 in 10.0 mi Calm Calm - N/A   Clear
1:15 PM 68.0 °F - 51.8 °F 56% 30.35 in 10.0 mi SSW 5.8 mph - N/A   Clear
1:35 PM 68.0 °F - 51.8 °F 56% 30.34 in 9.0 mi North 4.6 mph - N/A   Clear
1:55 PM 69.8 °F - 51.8 °F 53% 30.33 in 9.0 mi Calm Calm - N/A   Clear
2:15 PM 69.8 °F - 51.8 °F 53% 30.32 in 9.0 mi NNW 5.8 mph - N/A   Clear
2:35 PM 69.8 °F - 53.6 °F 56% 30.31 in 9.0 mi NNW 5.8 mph - N/A   Clear
2:55 PM 69.8 °F - 53.6 °F 56% 30.30 in 10.0 mi WSW 9.2 mph - N/A   Clear
3:15 PM 69.8 °F - 51.8 °F 53% 30.28 in 10.0 mi SSE 5.8 mph - N/A   Clear
3:35 PM 69.8 °F - 53.6 °F 56% 30.28 in 10.0 mi South 4.6 mph - N/A   Clear
3:55 PM 69.8 °F - 53.6 °F 56% 30.27 in 10.0 mi WSW 4.6 mph - N/A   Clear
4:15 PM 69.8 °F - 53.6 °F 56% 30.27 in 9.0 mi Calm Calm - N/A   Clear
4:35 PM 69.8 °F - 53.6 °F 56% 30.27 in 10.0 mi NE 3.5 mph - N/A   Clear
4:55 PM 69.8 °F - 53.6 °F 56% 30.26 in 10.0 mi NNE 5.8 mph - N/A   Clear
5:15 PM 69.8 °F - 51.8 °F 53% 30.26 in 10.0 mi North 5.8 mph - N/A   Clear
5:35 PM 68.0 °F - 51.8 °F 56% 30.26 in 10.0 mi SW 4.6 mph - N/A   Clear
5:55 PM 66.2 °F - 50.0 °F 56% 30.26 in 10.0 mi Calm Calm - N/A   Clear
6:15 PM 66.2 °F - 50.0 °F 56% 30.26 in 10.0 mi NE 3.5 mph - N/A   Clear
6:35 PM 64.4 °F - 48.2 °F 56% 30.26 in 9.0 mi Calm Calm - N/A   Clear
6:55 PM 62.6 °F - 44.6 °F 52% 30.27 in 8.0 mi Calm Calm - N/A   Clear
7:15 PM 57.2 °F - 41.0 °F 55% 30.27 in 8.0 mi Calm Calm - N/A   Clear
7:35 PM 53.6 °F - 37.4 °F 54% 30.28 in 10.0 mi Calm Calm - N/A   Clear
7:55 PM 51.8 °F - 35.6 °F 54% 30.28 in 10.0 mi Calm Calm - N/A   Clear
8:15 PM 48.2 °F - 33.8 °F 58% 30.28 in 10.0 mi Calm Calm - N/A   Clear
8:35 PM 48.2 °F - 33.8 °F 58% 30.29 in 10.0 mi Calm Calm - N/A   Clear
8:55 PM 46.4 °F - 33.8 °F 62% 30.29 in 9.0 mi Calm Calm - N/A   Clear
9:15 PM 46.4 °F - 33.8 °F 62% 30.29 in 10.0 mi Calm Calm - N/A   Clear
9:35 PM 44.6 °F - 32.0 °F 61% 30.30 in 10.0 mi Calm Calm - N/A   Clear
9:55 PM 44.6 °F - 32.0 °F 61% 30.31 in 10.0 mi Calm Calm - N/A   Clear
10:15 PM 42.8 °F - 30.2 °F 61% 30.31 in 10.0 mi Calm Calm - N/A   Clear
10:35 PM 42.8 °F 41.1 °F 30.2 °F 61% 30.31 in 10.0 mi SSE 3.5 mph - N/A   Clear
10:55 PM 42.8 °F - 30.2 °F 61% 30.30 in 10.0 mi Calm Calm - N/A   Clear
11:15 PM 42.8 °F - 30.2 °F 61% 30.30 in 10.0 mi Calm Calm - N/A   Clear
11:35 PM 41.0 °F - 28.4 °F 61% 30.30 in 10.0 mi Calm Calm - N/A   Clear
11:55 PM 39.2 °F - 28.4 °F 65% 30.30 in 10.0 mi Calm Calm - N/A   Clear